SCP
0 0 0 0 0 0 0 0 0 0 0 0 0 0 0 0 0 0 0 0 0 0 0 0 0 0 0 0 0 0 0 0 0 0 0 0 0 0 0 0 0 0 0
0 0 0 0 0 0 0 0 0 0 0 0 0 0 0 0 0 0 0 0 0 0 0 0 0 0 0 0 0 0 0 0 0 0 0 0 0 0 0 0 0 0 0
0 0 0 0 0 0 0 0 0 0 0 0 0 0 0 0 0 0 0 0 0 0 0 0 0 0 0 0 0 0 0 0 0 0 0 0 0 0 0 0 0 0 0
0 0 0 0 0 0 0 0 0 0 0 0 0 0 0 0 0 0 0 0 0 0 0 0 0 0 0 0 0 0 0 0 0 0 0 0 0 0 0 0 0 0 0
0 0 0 0 0 0 0 0 0 0 0 0 0 0 0 0 0 0 0 0 0 0 0 0 0 0 0 0 0 0 0 0 0 0 0 0 0 0 0 0 0 0 0
0 0 0 0 0 0 0 0 0 0 0 0 -0 -0 0 0 0 0 0 0 0 0 0 0 0 0 0 0 0 0 0 0 0 0 0 0 0 0 0 0 0 0 0
0 0 0 0 0 0 0 0 0 0 0 0 -0 -0 -0 0 0 0 0 0 0 0 0 0 0 0 0 0 0 0 0 0 0 0 0 0 0 0 0 0 0 0 0
0 0 0 0 0 0 0 0 0 0 0 0 -0 -0 -0 0 0 0 0 0 0 0 0 0 0 0 0 0 0 0 0 0 0 0 0 0 0 0 0 0 0 0 0
0 0 0 0 0 0 0 0 0 0 0 0 0 -0 0 0 0 0 0 0 0 0 0 0 0 0 0 0 0 0 0 0 0 0 0 0 0 0 0 0 0 0 0
0 0 0 0 0 0 0 0 0 0 0 0 0 0 0 0 0 0 0 0 0 0 0 0 0 0 0 0 0 0 0 0 0 0 0 0 0 0 0 0 0 0 0
0 0 0 0 0 0 0 0 0 0 0 0 0 0 0 0 0 0 0 0 0 0 0 0 0 0 0 0 0 0 0 0 0 0 0 0 0 0 0 0 0 0 0
0 0 0 0 0 0 0 0 0 0 0 0 0 0 0 0 0 0 0 0 0 0 0 0 0 0 0 0 0 0 0 0 0 0 0 0 0 0 0 0 0 0 0
0 0 0 0 0 0 0 0 0 0 0 0 0 0 0 0 0 0 0 0 0 0 0 0 0 0 0 0 0 0 0 0 0 0 0 0 0 0 0 0 0 0 0
0 0 0 0 0 0 0 0 0 0 0 0 0 0 0 0 0 0 0 0 0 0 0 0 0 0 0 0 0 0 0 0 0 0 0 0 0 0 0 0 0 0 0
0 0 0 0 0 0 0 0 0 0 0 0 0 0 0 0 0 0 0 0 0 0 0 0 0 0 0 0 0 0 0 0 0 0 0 0 0 0 0 0 0 0 0
0 0 0 0 0 0 0 0 0 0 0 0 0 0 0 0 0 0 0 0 0 0 0 0 0 0 0 0 0 0 0 0 0 0 0 0 0 0 0 0 0 0 0
0 0 0 0 0 0 0 0 0 0 0 0 0 0 0 0 0 0 0 0 0 0 0 0 0 0 0 0 0 0 0 0 0 0 0 0 0 0 0 0 0 0 0
0 0 0 0 0 0 0 0 0 0 0 0 0 0 0 0 0 0 0 0 0 0 0 0 0 0 0 0 0 0 0 0 0 0 0 0 0 0 0 0 0 0 0
0 0 0 0 0 0 0 0 0 0 0 0 0 0 0 0 0 0 0 0 0 0 0 0 0 0 0 0 0 0 0 0 0 0 0 0 0 0 0 0 0 0 0
0 0 0 0 0 0 0 0 0 0 0 0 0 0 0 0 0 0 0 0 0 0 0 0 0 0 0 0 0 0 0 0 0 0 0 0 0 0 0 0 0 0 0
0 0 0 0 0 0 0 0 0 0 0 0 0 0 0 0 0 0 0 0 0 0 0 0 0 0 0 0 0 0 0 0 0 0 0 0 0 0 0 0 0 0 0
0 0 0 0 0 0 0 0 0 0 0 0 0 0 0 0 0 0 0 0 0 0 0 0 0 0 0 0 0 0 0 0 0 0 0 0 0 0 0 0 0 0 0
0 0 0 0 0 0 0 0 0 0 0 0 0 0 0 0 0 0 0 0 0 0 0 0 0 0 0 0 0 0 0 0 0 0 0 0 0 0 0 0 0 0 0
0 0 0 0 0 0 0 0 0 0 0 0 0 0 0 0 0 0 0 0 0 0 0 0 0 0 0 0 0 0 0 0 0 0 0 0 0 0 0 0 0 0 0
0 0 0 0 0 0 0 0 0 0 0 0 0 0 0 0 0 0 0 0 0 0 0 0 0 0 0 0 0 0 0 0 0 0 0 0 0 0 0 0 0 0 0
0 0 0 0 0 0 0 0 0 0 0 0 0 0 0 0 0 0 0 0 0 0 0 0 0 0 0 0 0 0 0 0 0 0 0 0 0 0 0 0 0 0 0
Wind_Speed
4 3 4 2 2 2 2 2 1 1 1 1 2 2 3 3 2 2 2 3 3 4 3 3 3 3 3 3 3 2 2 1 2 3 3 4 4 4 4 3 2 2 2
4 4 4 3 2 2 2 1 1 1 2 2 3 3 3 3 3 3 3 3 3 4 4 4 4 3 3 3 2 3 2 2 1 4 4 4 4 4 3 3 4 3 2
5 4 4 4 3 2 2 2 2 2 2 2 3 3 3 3 3 3 4 4 3 3 3 4 4 4 4 3 3 3 3 4 2 3 4 3 3 3 3 4 4 4 4
5 4 4 3 3 3 2 1 1 2 2 2 2 2 3 3 4 4 4 5 4 4 3 3 2 2 3 4 3 3 4 4 4 3 3 3 3 3 2 3 3 3 4
6 5 4 3 3 3 2 1 1 1 2 2 3 3 3 3 4 5 5 6 5 4 4 3 2 2 2 3 2 2 3 3 3 3 3 3 3 3 2 2 3 3 3
6 5 4 4 3 3 2 1 1 1 1 2 2 2 3 3 5 7 6 6 5 5 4 3 2 1 2 4 5 5 5 4 3 3 3 3 4 4 3 3 3 3 3
7 6 5 5 4 3 3 2 1 1 0 1 1 1 1 1 4 6 8 6 5 4 4 3 4 3 4 3 5 6 7 8 7 4 4 4 4 4 3 4 3 3 4
7 7 6 5 5 4 3 2 2 1 1 1 1 1 0 1 3 5 8 5 5 4 3 3 3 3 4 5 5 5 4 5 6 4 4 4 4 4 3 4 4 4 4
7 7 7 6 6 5 4 4 3 2 1 2 2 2 2 1 2 4 6 4 4 4 3 3 3 2 5 8 5 5 5 5 7 7 8 9 10 10 7 2 2 2 3
8 7 7 6 6 6 5 4 3 3 3 2 2 2 2 2 3 3 4 3 4 4 3 2 3 3 5 7 4 4 5 6 6 7 7 8 7 7 8 5 3 3 3
7 6 6 6 6 6 5 4 4 3 3 3 3 3 3 3 3 4 3 2 3 4 3 3 2 5 6 8 7 4 7 9 6 6 5 5 4 4 3 3 3 3 3
6 6 6 6 6 5 5 4 4 4 4 4 4 4 3 3 4 5 6 5 5 3 4 3 3 7 9 11 9 10 14 12 5 4 4 4 4 4 3 3 3 3 3
6 6 5 5 5 5 5 5 4 4 4 4 3 3 3 2 3 6 7 7 7 4 4 7 9 10 10 9 11 14 11 6 4 4 4 5 4 3 3 3 3 3 3
6 5 5 5 5 5 4 4 4 4 4 4 4 4 3 2 2 2 3 4 5 5 5 7 11 12 10 10 10 8 5 5 5 5 4 4 3 3 3 3 3 3 3
5 5 5 5 5 4 4 4 5 4 5 5 4 3 3 3 4 4 3 3 3 3 4 4 4 4 4 4 5 5 4 4 4 4 4 4 3 3 3 3 2 3 3
4 4 3 3 3 4 4 3 6 6 8 9 9 7 5 6 7 7 7 7 7 7 5 4 5 5 5 5 5 5 4 4 4 4 4 3 4 4 4 3 3 3 4
4 3 3 3 3 3 3 4 3 5 7 9 10 10 10 9 9 9 9 8 8 7 4 5 6 5 5 5 5 4 4 4 4 4 4 4 4 4 4 4 4 4 4
3 3 3 3 3 3 4 4 4 4 4 4 7 11 12 12 12 11 10 6 5 4 5 6 6 5 5 5 5 4 4 4 4 4 4 4 4 4 4 4 4 5 4
2 2 2 2 3 3 4 4 4 5 4 4 4 5 10 11 11 11 8 5 6 6 5 6 5 5 5 5 4 4 4 4 4 4 4 4 4 4 4 5 5 6 5
2 4 3 3 3 3 3 4 4 4 5 5 5 4 4 4 4 5 6 6 6 6 6 6 5 5 5 4 4 4 4 4 5 5 5 4 4 4 5 5 5 5 5
1 2 4 3 3 3 3 4 4 4 4 5 4 5 5 4 5 6 5 6 7 7 6 5 5 5 4 4 4 4 5 4 5 5 4 4 4 4 4 4 5 5 5
1 2 2 3 3 3 3 4 4 4 5 5 4 4 7 5 4 5 5 5 6 5 5 5 5 4 4 4 4 4 4 5 5 4 4 4 3 3 4 4 4 4 5
2 3 3 3 3 4 4 4 4 4 4 4 4 4 4 4 5 5 6 5 5 5 4 4 4 4 4 4 4 4 5 5 5 4 4 4 4 4 4 4 6 6 6
3 3 4 4 3 3 3 4 4 4 4 5 5 5 5 5 5 6 6 5 4 4 4 4 4 6 7 5 4 5 5 5 5 4 5 5 5 5 5 5 6 7 7
3 4 4 4 4 3 3 4 4 4 4 4 4 4 4 4 4 4 4 4 4 4 5 5 4 5 7 8 7 6 7 9 8 5 4 4 6 7 7 7 7 7 8
4 5 4 4 3 3 4 4 4 4 4 4 4 4 4 4 4 4 4 4 4 4 5 4 5 7 8 7 9 9 9 9 9 9 5 4 6 6 7 7 8 8 9
Wind_Direction
158 139 124 124 115 112 92 75 62 59 34 27 30 29 31 27 40 31 2 2 354 348 353 0 348 345 336 335 337 333 329 325 295 300 316 326 338 335 333 333 324 302 293
151 137 140 143 142 136 119 94 42 45 27 19 35 31 24 20 22 18 355 359 353 348 346 349 345 350 347 337 334 332 328 321 316 308 313 321 323 319 326 333 333 333 313
150 152 163 159 152 142 113 78 28 28 28 26 28 26 24 20 16 7 356 350 349 346 344 346 350 359 354 342 341 340 331 330 324 307 300 307 313 322 336 333 333 328 324
158 168 173 159 150 137 112 92 45 28 13 13 19 23 24 23 22 7 1 346 339 335 331 333 351 11 358 344 341 342 339 331 318 311 304 306 305 312 342 334 328 327 326
163 170 170 161 144 132 125 131 91 40 7 15 17 19 14 20 22 15 354 335 333 326 326 334 349 9 348 325 325 326 330 315 312 316 310 314 315 329 326 314 321 316 317
167 169 163 153 139 138 144 145 104 54 11 18 11 17 9 16 19 10 352 333 325 320 322 330 326 330 316 316 314 306 295 292 296 298 307 309 307 311 316 321 322 329 316
169 165 159 159 159 164 164 146 152 191 142 22 342 358 27 33 0 351 343 327 314 315 322 327 329 354 354 334 317 309 306 297 284 282 282 286 295 300 313 315 307 300 286
171 168 166 165 165 164 163 173 189 198 172 188 263 284 306 306 336 338 334 318 303 304 312 326 332 359 5 358 338 329 310 303 289 278 269 274 285 284 276 277 277 291 292
173 171 170 167 168 171 177 187 192 187 196 225 237 246 245 233 299 321 330 309 302 307 313 336 355 18 354 350 339 324 318 308 304 300 292 286 284 282 277 283 292 294 294
175 174 172 170 171 177 184 190 191 190 206 221 236 243 246 217 242 286 314 304 309 311 313 328 1 343 334 339 331 322 316 307 310 309 302 294 287 282 279 252 230 245 271
166 168 171 170 174 180 183 188 190 198 211 227 235 242 239 219 219 235 263 286 303 309 314 316 310 313 315 314 311 293 287 293 292 291 290 290 287 283 272 258 236 223 243
156 165 172 175 184 185 180 190 199 203 214 230 237 244 237 220 210 222 238 254 278 289 295 298 297 300 304 302 297 286 291 295 286 282 281 280 278 277 272 270 270 259 245
159 170 178 183 185 179 182 195 205 206 215 229 231 237 241 226 215 224 233 250 264 266 273 284 292 293 294 291 281 283 289 283 274 271 270 270 266 265 273 286 292 288 282
173 180 187 192 192 192 193 198 204 209 217 226 231 235 239 236 225 215 226 244 257 269 279 288 291 286 278 271 278 279 265 255 257 254 259 262 268 272 270 267 269 273 284
188 191 196 197 194 194 198 207 211 215 214 218 226 226 231 242 234 227 231 245 252 264 288 282 278 278 273 269 271 270 267 268 266 258 259 263 265 267 268 262 259 266 269
201 202 198 193 192 194 200 221 230 226 228 227 226 227 238 235 234 240 246 254 265 278 288 276 276 272 269 271 273 275 273 271 266 262 260 258 256 257 263 261 252 252 260
214 206 194 194 197 201 207 215 236 247 242 242 238 237 237 241 242 245 250 256 265 271 265 263 264 264 267 268 268 269 272 270 270 265 259 258 258 257 257 260 258 258 259
225 216 203 200 203 212 219 224 226 230 240 249 244 239 240 242 244 248 252 258 266 250 243 252 258 260 263 265 264 267 271 273 273 269 261 262 262 262 262 259 257 255 257
232 225 214 212 215 225 227 228 232 238 241 242 237 235 234 238 243 247 244 237 245 249 249 251 254 256 257 257 259 262 266 269 275 273 264 263 258 258 264 265 264 265 265
253 243 240 232 232 235 235 236 238 240 243 243 239 235 220 217 231 238 231 233 241 247 248 250 251 251 254 256 256 259 266 269 277 273 267 260 254 252 257 264 263 264 262
264 260 255 249 243 242 242 244 249 251 251 249 244 237 226 223 231 236 235 233 236 241 245 247 248 250 251 252 254 258 264 267 268 267 269 267 257 257 262 267 270 272 272
295 281 270 262 258 256 255 255 254 255 258 258 256 251 245 243 244 245 245 244 240 240 241 242 246 244 240 241 247 253 261 268 268 266 269 271 268 262 263 267 272 276 274
306 300 295 286 274 273 273 267 262 262 262 262 260 257 250 248 250 253 253 252 250 248 245 240 243 248 246 242 242 247 256 261 261 258 269 273 270 267 265 271 274 279 276
314 305 298 294 290 279 275 276 276 276 275 273 270 265 260 256 256 258 258 253 250 250 251 249 247 252 258 258 253 250 251 257 264 259 261 267 271 269 267 265 265 268 273
305 297 293 292 292 293 292 291 290 290 290 288 286 284 280 276 273 271 268 263 262 260 260 258 253 257 264 267 267 264 265 267 267 265 260 258 263 265 265 265 264 266 267
290 288 287 288 290 293 293 293 295 298 298 300 301 301 297 293 289 283 278 273 268 264 264 262 262 267 271 271 270 269 269 268 266 264 260 259 262 263 264 264 262 263 265